Temperature
14 14 13 13 13 13 13 13 13 14 13 12 12 12 12 12 12 12 12 12 12 12 11 11 11 11 11 11 10 10 10 10 10 10 9 9 9 9
14 14 14 13 13 13 13 13 13 13 13 12 12 12 12 12 12 12 12 12 12 11 11 11 11 11 11 11 10 10 10 10 9 9 9 9 9 9
14 14 14 13 13 13 13 13 13 13 13 12 12 12 12 11 12 11 11 11 11 11 11 11 11 11 11 10 10 10 9 9 9 9 8 8 8 8
14 13 13 13 13 13 13 12 12 12 12 12 12 12 11 11 11 11 11 11 10 11 11 11 11 10 10 10 10 10 9 9 9 9 8 8 8 8
13 13 13 13 13 13 13 12 12 12 12 12 12 11 11 11 11 11 11 10 10 10 10 10 10 10 10 10 9 9 9 9 8 8 8 8 8 8
13 13 13 13 13 12 13 12 12 12 12 12 11 11 11 11 11 11 10 10 10 10 10 10 10 10 9 9 9 9 9 8 8 8 8 8 8 8
13 13 13 13 13 12 12 12 12 12 12 11 11 11 11 10 10 10 10 10 10 10 9 9 9 9 9 9 9 8 8 8 8 8 8 8 7 7
13 13 13 12 13 12 12 12 12 12 11 11 11 11 11 10 10 10 10 9 9 9 9 9 9 8 8 8 8 8 8 8 8 7 7 7 7 7
13 12 12 12 12 12 12 12 12 12 11 11 11 11 10 10 10 10 9 9 9 9 9 8 8 8 8 8 8 8 8 7 7 7 7 7 7 7
12 12 12 12 12 12 11 11 11 11 11 11 10 10 10 10 10 9 9 9 8 8 8 8 8 8 8 7 8 8 7 7 7 7 7 6 6 6
12 12 12 12 12 11 11 11 11 11 11 10 10 10 10 10 10 9 9 8 8 8 8 7 7 7 7 7 7 7 7 7 7 6 6 6 6 6
12 12 12 11 11 11 11 11 10 10 10 10 10 10 9 9 9 9 8 8 8 7 7 7 7 6 6 6 6 6 6 6 6 6 6 6 6 5
11 11 11 11 11 11 11 10 10 10 10 9 9 9 9 9 9 8 8 7 7 7 7 7 6 6 6 6 6 6 5 5 5 6 5 5 5 5
11 11 11 11 11 11 11 10 10 10 9 9 9 9 8 8 8 8 8 7 7 7 6 6 6 6 5 5 5 5 5 5 5 5 5 5 5 5
11 11 11 11 10 10 10 10 10 9 9 9 8 8 8 8 7 7 7 7 7 7 6 6 6 6 5 5 5 5 5 5 5 4 4 4 4 4
10 10 10 10 10 10 10 9 9 9 8 8 8 8 7 7 7 7 7 7 6 6 6 6 6 5 5 5 5 5 5 4 4 4 4 4 4 4
10 10 10 10 9 9 9 9 9 8 8 8 8 7 7 7 7 7 6 6 6 6 6 6 6 5 5 5 4 4 4 4 4 4 3 3 3 3
10 9 9 9 9 9 9 8 8 8 8 7 7 7 7 7 6 6 6 6 5 5 5 5 5 5 5 4 4 4 3 3 3 3 3 3 3 3
9 9 9 9 9 8 8 8 7 7 7 7 7 7 7 6 6 6 6 5 5 5 5 4 4 4 4 4 4 4 3 3 3 3 2 2 2 2
9 9 8 8 8 8 8 7 7 7 7 7 6 6 6 6 6 5 5 5 5 5 4 4 4 4 3 3 3 3 3 3 2 2 2 2 2 2
9 8 8 8 8 8 7 7 7 7 6 6 6 6 6 6 5 5 5 5 4 4 4 4 4 3 3 3 2 2 2 2 2 2 1 1 1 1
8 8 8 7 7 7 7 7 7 6 6 6 6 6 5 5 5 5 4 4 4 4 4 3 3 3 3 2 2 2 2 2 2 2 1 1 1 1
8 8 7 7 7 7 7 7 6 6 6 6 5 5 5 5 5 4 4 4 4 3 3 3 3 2 2 2 2 2 1 1 1 1 1 1 1 1
Wind_Speed
1 1 1 1 1 0 0 1 1 0 1 2 2 2 2 3 3 2 4 7 6 5 6 6 6 6 6 6 5 5 5 6 6 6 7 8 8 9
1 1 1 1 1 1 1 0 1 1 1 2 1 2 3 2 3 3 4 6 5 4 4 4 4 4 5 5 5 5 5 5 5 5 6 6 7 7
2 2 2 2 2 1 1 1 1 1 1 2 2 2 2 2 2 2 2 2 4 5 4 3 4 4 4 4 5 5 5 5 5 5 5 6 6 6
2 2 3 3 2 1 1 1 1 1 1 2 2 1 1 1 1 1 1 1 2 4 3 3 3 3 3 3 4 4 4 4 4 4 5 5 6 6
2 2 2 3 3 2 1 1 1 1 1 1 2 1 1 0 0 1 1 1 0 1 2 1 1 1 2 2 3 3 3 3 4 5 5 5 6 6
2 2 2 2 2 2 2 1 1 1 1 1 1 1 1 0 1 1 1 1 1 1 1 1 1 2 2 1 1 1 2 2 3 3 4 5 5 6
2 2 2 2 3 1 0 1 2 2 2 1 1 1 1 1 1 2 2 2 2 1 2 2 2 2 2 3 2 2 2 2 2 2 3 4 5 5
3 3 3 3 3 3 1 1 0 2 2 2 2 2 2 2 2 2 2 2 3 1 3 3 2 2 2 2 1 1 3 3 3 3 3 4 4 5
3 3 3 2 3 3 4 5 3 2 2 3 3 3 3 2 3 3 3 4 4 2 3 3 2 3 3 1 1 2 3 4 4 5 5 5 5 6
3 3 3 3 2 2 2 3 2 2 3 4 3 3 2 2 3 4 4 4 3 2 2 4 3 3 3 3 2 3 4 5 5 5 6 6 6 7
3 3 3 3 3 2 3 3 3 2 2 1 2 2 2 1 2 2 2 3 4 3 2 3 4 4 4 3 3 4 5 5 6 6 6 6 7 8
3 3 2 2 3 3 4 4 4 3 2 2 2 2 3 3 4 4 3 4 4 3 2 3 3 3 3 3 2 3 4 5 6 6 6 6 6 7
3 3 2 4 4 3 4 3 2 2 2 2 2 1 2 2 3 4 4 4 5 4 2 3 4 4 4 4 4 4 4 5 5 5 6 6 6 6
3 3 2 5 4 3 3 1 1 1 2 2 2 2 2 2 2 3 3 4 5 6 4 4 4 5 6 6 5 4 5 5 5 5 5 6 8 9
2 2 2 4 4 4 3 3 3 3 3 3 3 3 2 2 2 2 3 3 4 5 5 5 5 5 6 7 6 6 6 5 5 5 5 5 5 5
3 3 4 4 3 2 2 3 3 3 3 3 3 3 2 2 2 2 3 3 4 4 5 6 6 6 6 7 7 7 6 5 4 5 6 6 6 6
4 3 3 3 3 3 3 3 3 3 3 3 3 3 3 3 3 3 4 4 5 5 4 3 4 5 6 6 7 7 6 6 5 5 6 6 6 6
4 4 4 4 4 4 4 4 4 4 4 4 4 4 4 4 5 4 4 5 6 6 5 4 3 4 4 5 5 7 6 6 6 6 6 7 7 6
5 5 5 5 5 4 4 5 5 5 4 4 5 5 5 5 5 5 5 5 6 6 5 4 4 4 6 7 5 5 6 6 5 6 6 7 8 7
5 6 5 5 5 5 5 5 5 5 5 5 5 6 6 5 6 6 6 6 6 6 6 5 5 6 7 8 7 6 7 6 6 7 7 7 7 7
6 6 6 6 5 5 5 5 5 5 5 5 6 6 6 5 6 6 6 6 7 7 7 6 5 5 6 5 6 6 5 7 7 7 7 7 7 7
6 6 6 6 6 6 6 6 6 6 6 6 6 6 6 6 7 7 6 6 6 6 7 5 4 4 5 6 7 7 6 6 6 9 9 8 6 6
6 6 6 6 6 6 6 7 8 7 6 6 6 6 6 6 6 6 6 7 6 6 6 5 4 4 5 6 7 7 8 7 6 6 6 7 10 12
Wind_Direction
118 120 115 105 107 100 173 253 284 241 106 93 88 82 78 70 58 72 79 86 79 69 65 58 49 43 39 35 31 36 38 36 32 28 26 21 19 18
107 111 109 107 103 117 153 242 322 314 85 93 94 99 87 83 66 59 74 95 86 79 68 59 50 43 37 30 30 35 31 28 25 22 19 15 16 14
132 127 124 106 113 117 130 129 52 39 119 104 110 105 109 94 91 67 84 92 91 97 77 58 50 45 37 39 44 41 33 27 20 13 12 11 7 6
139 136 134 127 123 113 123 126 95 32 137 138 140 127 112 74 56 40 53 54 71 96 92 67 51 46 39 42 43 38 29 19 16 12 7 4 5 4
149 142 133 135 135 123 138 135 125 112 107 161 139 119 142 78 36 9 339 17 7 106 140 140 99 44 45 43 38 31 26 21 14 6 2 358 354 351
148 140 139 147 146 148 155 152 144 140 139 152 155 163 164 201 268 304 306 293 286 305 303 232 188 201 207 198 6 7 9 4 353 353 355 352 350 348
159 154 131 100 60 61 101 166 164 171 174 182 194 208 208 217 256 272 285 290 278 294 290 270 246 245 220 210 225 257 289 307 321 333 340 339 339 338
182 172 155 159 148 151 119 59 21 209 210 211 230 242 251 246 258 262 270 279 288 297 289 286 277 283 273 273 129 221 254 271 279 288 301 310 318 323
194 182 171 174 194 190 172 179 189 230 271 264 263 269 266 261 256 263 270 280 287 300 287 283 280 280 279 285 145 237 267 273 277 280 284 287 295 301
202 202 192 193 186 211 201 201 207 204 224 242 266 282 294 286 265 269 277 277 269 262 277 282 286 289 285 267 206 238 259 268 276 281 285 286 287 289
203 206 207 207 125 183 224 225 223 216 155 210 347 2 29 2 292 256 256 256 270 266 256 278 291 293 283 270 243 229 249 257 269 276 282 286 287 281
207 197 168 218 139 189 224 230 234 233 222 203 206 213 223 210 224 240 250 263 277 276 270 275 285 294 282 273 276 261 253 242 245 251 264 278 291 285
216 212 186 151 168 198 238 245 263 269 234 240 237 224 222 229 231 248 262 270 272 275 270 261 276 277 279 285 286 276 275 276 267 255 247 252 263 275
222 222 182 150 177 207 228 194 118 213 227 225 234 240 245 251 254 258 266 272 277 280 275 264 271 272 275 276 282 280 279 272 270 274 275 254 244 244
216 127 137 167 187 201 200 189 192 217 223 229 242 248 251 260 260 264 266 274 275 273 271 267 267 269 270 274 279 282 286 283 271 278 280 280 277 271
210 157 162 182 206 216 188 198 220 233 240 243 253 264 262 254 252 256 261 261 269 268 265 265 265 265 268 272 275 278 281 278 276 281 284 281 278 276
206 202 205 203 210 215 222 223 226 229 241 252 256 255 249 249 252 252 256 260 265 271 273 272 269 269 272 275 273 274 277 281 282 282 283 281 279 277
204 216 220 223 229 231 232 235 236 239 242 246 252 254 253 253 257 253 251 255 263 268 270 266 267 280 277 272 258 270 275 278 282 278 276 279 281 281
212 227 231 231 233 237 240 244 247 247 245 246 251 253 254 256 257 257 254 258 263 267 268 263 257 264 276 283 271 246 273 281 283 279 275 278 283 286
224 234 238 238 237 239 242 246 249 249 248 251 254 256 255 256 259 260 258 260 264 266 266 259 253 257 266 279 283 277 249 269 276 277 279 278 281 285
225 234 240 241 240 240 242 244 245 247 251 252 255 257 256 258 263 266 264 262 262 263 263 263 266 267 277 283 278 275 269 251 264 277 284 283 285 283
230 235 239 243 243 243 242 242 244 245 247 250 255 257 256 253 257 262 266 265 261 263 269 273 270 256 261 264 271 278 282 281 258 254 258 265 283 284
237 237 240 241 242 244 244 242 244 247 246 248 252 255 255 256 256 256 257 259 262 261 262 264 260 257 259 264 272 277 280 284 285 278 268 249 260 270
Height
1556 1555 1555 1555 1554 1554 1554 1555 1556 1555 1555 1555 1554 1554 1553 1553 1552 1552 1551 1550 1549 1548 1547 1546 1545 1544 1542 1541 1540 1538 1537 1536 1534 1533 1532 1531 1529 1528
1555 1555 1554 1554 1554 1554 1554 1554 1554 1555 1555 1555 1554 1554 1553 1553 1552 1551 1551 1549 1549 1548 1547 1545 1544 1543 1541 1540 1539 1537 1536 1535 1533 1532 1531 1530 1528 1527
1554 1554 1554 1554 1554 1554 1554 1554 1554 1554 1554 1554 1554 1553 1553 1552 1552 1551 1550 1549 1549 1547 1546 1545 1543 1542 1540 1539 1538 1536 1535 1533 1532 1531 1529 1528 1527 1525
1554 1554 1554 1554 1554 1554 1554 1554 1554 1554 1554 1554 1554 1553 1553 1552 1551 1550 1550 1549 1548 1546 1545 1544 1542 1541 1540 1538 1537 1535 1534 1532 1531 1530 1528 1527 1526 1524
1553 1553 1553 1554 1553 1553 1553 1553 1553 1553 1553 1553 1553 1552 1552 1551 1550 1550 1549 1548 1547 1546 1544 1543 1541 1540 1538 1537 1535 1534 1532 1531 1530 1528 1527 1526 1524 1523
1553 1553 1553 1553 1553 1553 1553 1553 1553 1552 1552 1552 1552 1551 1551 1550 1549 1549 1548 1547 1546 1545 1543 1542 1540 1539 1537 1535 1534 1532 1531 1530 1528 1527 1525 1524 1522 1521
1552 1552 1552 1552 1552 1552 1552 1552 1552 1552 1551 1551 1551 1550 1550 1549 1548 1547 1547 1546 1545 1543 1542 1540 1539 1537 1536 1533 1532 1531 1529 1528 1526 1525 1523 1522 1520 1519
1550 1551 1550 1550 1550 1550 1550 1550 1550 1550 1550 1550 1550 1549 1549 1548 1547 1546 1545 1545 1544 1542 1540 1539 1537 1536 1534 1532 1530 1529 1527 1526 1524 1523 1521 1519 1518 1516
1549 1549 1549 1549 1549 1549 1549 1549 1548 1548 1548 1548 1548 1548 1547 1546 1545 1544 1543 1543 1542 1540 1538 1537 1535 1534 1532 1530 1528 1526 1525 1523 1521 1520 1518 1517 1515 1513
1547 1547 1547 1547 1547 1547 1548 1547 1547 1546 1546 1546 1546 1545 1544 1544 1543 1542 1541 1540 1539 1537 1536 1534 1533 1531 1529 1527 1525 1523 1522 1520 1519 1517 1515 1514 1512 1510
1545 1545 1545 1546 1545 1545 1545 1545 1545 1544 1544 1543 1542 1542 1541 1540 1539 1539 1538 1537 1536 1535 1533 1532 1530 1528 1526 1525 1522 1520 1519 1517 1515 1514 1512 1510 1509 1507
1543 1543 1543 1543 1543 1543 1543 1543 1542 1542 1541 1541 1540 1539 1538 1537 1536 1536 1535 1534 1533 1533 1530 1529 1527 1526 1523 1522 1520 1518 1516 1514 1512 1510 1509 1507 1505 1504
1540 1540 1540 1540 1540 1540 1540 1540 1539 1539 1538 1538 1537 1536 1535 1534 1533 1532 1532 1531 1531 1530 1528 1526 1525 1523 1522 1519 1517 1515 1513 1511 1509 1507 1506 1504 1502 1501
1537 1538 1537 1537 1537 1537 1537 1536 1536 1536 1535 1535 1534 1533 1532 1531 1530 1529 1528 1527 1526 1526 1524 1523 1521 1520 1518 1516 1514 1512 1510 1508 1506 1504 1502 1500 1499 1497
1534 1534 1535 1535 1534 1534 1534 1533 1533 1532 1532 1531 1531 1530 1529 1528 1527 1526 1525 1523 1522 1521 1520 1519 1518 1516 1514 1513 1511 1508 1506 1504 1503 1501 1499 1497 1495 1493
1531 1531 1531 1531 1531 1531 1531 1530 1530 1529 1528 1528 1527 1526 1525 1524 1523 1522 1521 1520 1518 1517 1516 1515 1513 1512 1510 1508 1507 1504 1503 1501 1499 1497 1495 1493 1491 1489
1528 1528 1528 1528 1528 1528 1527 1527 1526 1526 1525 1524 1524 1523 1521 1520 1519 1518 1517 1516 1514 1513 1511 1510 1509 1507 1505 1504 1502 1500 1498 1496 1495 1492 1490 1488 1487 1485
1525 1524 1524 1524 1524 1523 1523 1523 1522 1522 1521 1520 1520 1518 1517 1516 1515 1514 1513 1512 1510 1508 1507 1505 1504 1502 1500 1498 1498 1495 1494 1492 1490 1488 1486 1484 1482 1481
1520 1520 1520 1520 1520 1519 1519 1519 1518 1518 1517 1516 1515 1514 1513 1512 1511 1510 1508 1507 1505 1504 1503 1501 1499 1498 1496 1494 1492 1491 1489 1487 1485 1483 1481 1480 1478 1476
1515 1515 1515 1515 1515 1515 1514 1514 1514 1513 1512 1511 1511 1510 1508 1507 1506 1505 1503 1502 1501 1499 1498 1496 1495 1493 1492 1490 1488 1485 1484 1483 1480 1478 1476 1474 1472 1470
1509 1510 1510 1510 1510 1510 1509 1509 1508 1508 1507 1506 1506 1505 1504 1502 1501 1500 1498 1496 1495 1494 1492 1491 1489 1488 1487 1485 1483 1480 1479 1477 1475 1474 1471 1470 1467 1465
1504 1504 1505 1505 1504 1504 1504 1503 1503 1502 1501 1501 1500 1499 1498 1497 1496 1494 1493 1491 1490 1488 1487 1486 1484 1483 1481 1480 1478 1476 1474 1472 1470 1468 1466 1465 1463 1460
1499 1499 1499 1499 1498 1498 1498 1497 1497 1496 1495 1495 1494 1493 1492 1491 1490 1489 1487 1486 1485 1483 1482 1480 1479 1478 1476 1475 1473 1471 1470 1467 1465 1463 1462 1460 1458 1456